Lapse_Rate
1.5 0.7 0.7 0.9 0.8 0.0 0.4 0.2 -0.1 -0.1 1.1 1.1 1.2 1.0 1.4 1.7 1.3 1.4 1.2 0.8 0.4 0.6 -0.4 -1.4 -1.3 -1.5 -1.5 -1.6 -0.7 -0.2 0.1 0.4 -0.4 -0.0 -0.3 -0.4 0.3 0.8 0.8 0.9 0.2 0.4 1.1
1.4 0.9 0.5 -0.0 0.2 0.3 0.3 0.1 -0.0 -0.3 0.1 0.4 -0.7 -0.4 -0.6 0.1 -0.3 -0.8 -0.2 -0.1 0.0 0.2 -0.2 -1.4 -1.6 -1.5 -1.2 -1.1 -1.0 -0.6 0.5 0.7 0.2 1.2 0.8 1.8 1.1 0.8 2.3 0.5 1.3 1.3 1.3
1.1 0.5 -0.4 -0.1 -0.4 -0.1 -0.5 -0.0 -0.1 -0.0 -0.0 0.2 0.1 -0.1 0.3 0.1 0.4 -0.2 -1.5 -1.5 -0.5 -0.3 -0.6 -1.0 -1.5 -1.5 -1.4 -1.0 -0.6 -0.1 0.5 1.1 1.5 2.1 3.4 3.3 3.4 2.9 1.8 3.1 2.1 3.6 1.4
2.1 1.7 -0.7 -0.1 -0.7 0.1 -0.5 0.2 0.6 0.8 1.3 1.5 1.0 1.3 0.6 -0.3 -1.3 -1.8 -2.3 -2.1 -0.8 -0.7 -0.4 -0.6 -0.9 -1.4 -1.1 -0.5 0.5 0.9 0.5 1.3 1.9 1.7 4.0 3.9 4.4 4.8 4.2 3.7 3.7 2.4 4.0
1.9 0.5 0.0 0.2 -0.2 -0.7 -0.7 0.5 1.0 1.2 0.4 0.4 0.6 0.1 -0.9 -1.0 -2.1 -2.1 -2.2 -1.9 -1.8 -0.8 -0.5 -0.4 -0.7 -0.9 -0.9 -0.3 0.4 0.5 0.7 1.1 2.0 2.4 2.7 3.0 3.3 3.5 4.5 6.2 4.6 3.7 3.8
1.9 1.1 -0.8 0.1 -0.6 -0.8 -0.5 0.7 1.2 0.1 -0.0 0.2 -0.2 0.1 -0.7 -1.3 -1.8 -2.4 -2.0 -1.7 -1.6 -1.4 -0.8 -0.5 -0.8 -0.5 -0.1 0.4 0.4 0.8 1.4 1.6 1.9 2.1 2.6 3.6 4.6 4.8 5.0 5.8 6.1 6.4 5.7
2.2 0.5 0.7 1.2 0.2 -0.0 0.1 0.8 1.2 -0.1 -0.4 -0.6 -0.8 -0.9 -1.6 -1.6 -1.7 -1.8 -1.5 -0.9 -0.7 -0.8 -0.9 -0.8 -0.6 -0.1 0.5 0.7 0.8 1.1 1.4 1.9 1.8 2.0 2.3 2.8 3.7 4.7 5.0 5.4 5.2 6.2 6.0
3.1 1.8 1.7 1.4 0.8 0.3 0.5 0.6 0.7 -0.5 -0.7 -0.8 -1.7 -2.0 -1.9 -1.7 -1.7 -1.4 -1.3 -1.1 -0.8 -0.7 -0.7 -0.5 0.2 0.7 1.2 1.2 1.1 1.1 1.2 2.2 1.6 2.1 2.0 3.1 3.7 4.3 4.8 5.6 5.8 6.0 6.9
4.3 3.2 2.0 1.2 0.9 0.4 0.3 0.4 0.0 -0.8 -0.8 -1.2 -1.5 -1.9 -1.7 -1.3 -1.4 -1.4 -1.2 -1.1 -0.7 0.7 -0.2 0.2 0.7 0.9 1.4 1.4 1.2 1.1 1.5 1.4 1.8 1.8 2.6 3.1 3.9 4.3 4.3 4.9 5.6 6.4 6.9
5.6 4.6 2.7 1.5 0.8 0.2 -0.3 -0.0 0.2 -0.5 -1.0 -1.2 -1.0 -1.4 -1.6 -1.3 -1.4 -1.1 -0.8 -0.6 -0.4 0.0 0.3 0.7 1.0 1.3 1.4 1.3 1.4 1.5 1.8 1.9 1.8 3.2 3.3 3.3 4.2 4.4 4.5 5.0 5.7 6.1 6.6
5.6 4.9 3.4 1.6 0.8 0.2 0.2 -0.2 -0.2 -0.4 -0.4 -0.5 -1.1 -1.4 -1.4 -1.1 -0.9 -0.9 -0.7 -0.4 -0.3 0.1 0.7 1.0 1.1 1.2 1.2 1.3 1.4 1.6 2.4 2.3 2.5 2.8 3.6 4.2 4.8 4.9 5.5 5.5 5.9 6.3 6.7
6.4 4.3 2.1 1.4 1.5 0.6 0.4 -0.0 -0.1 -0.1 -0.6 -0.7 -0.9 -1.1 -1.0 -0.9 -0.8 -0.6 -0.4 -0.1 0.2 0.6 1.0 1.0 1.2 1.3 1.5 1.5 1.7 1.9 2.0 2.5 2.8 3.7 4.2 4.8 7.0 5.6 5.6 5.6 6.3 6.7 6.9
5.0 3.3 2.0 2.1 1.4 1.0 0.4 0.4 0.0 -0.3 -0.5 -0.4 -0.6 -1.0 -0.8 -0.6 -0.5 -0.3 0.0 0.3 0.8 1.0 1.0 1.1 1.3 1.5 1.7 1.7 1.8 2.4 2.6 2.9 3.7 4.4 4.8 5.5 5.7 5.6 6.1 6.6 6.8 7.0 8.4
5.0 3.2 2.7 2.2 1.5 1.2 1.0 0.5 0.0 0.1 -0.3 -0.2 -0.4 -0.6 -0.4 -0.3 -0.1 0.0 0.4 0.8 0.9 0.8 1.0 1.4 1.7 1.9 1.6 2.0 2.7 3.2 3.5 3.9 4.9 5.0 5.2 5.5 5.8 6.0 6.8 8.0 8.1 8.4 8.1
5.0 3.7 2.7 1.9 1.4 1.1 0.9 0.8 0.4 0.2 0.1 0.2 -0.0 -0.2 -0.2 0.1 0.3 0.9 0.9 0.9 0.8 1.2 1.4 1.5 1.4 1.3 2.1 4.5 4.3 4.7 4.9 4.9 4.8 5.2 5.3 6.2 7.4 9.3 9.3 9.1 8.4 8.4 7.9
5.2 4.1 3.0 1.7 1.6 1.5 1.2 1.3 0.6 0.5 0.6 0.3 0.1 0.3 0.5 1.0 1.7 1.7 0.7 0.9 1.2 1.5 1.3 1.1 1.1 1.0 3.3 5.0 6.4 7.0 5.8 5.2 5.0 5.2 5.9 6.1 7.9 7.7 9.5 9.5 9.5 9.2 8.5
4.5 3.8 2.2 2.0 2.0 1.4 1.3 1.2 0.9 0.4 0.6 0.7 0.7 1.2 1.8 2.0 1.9 1.3 1.1 1.6 1.3 0.6 0.7 1.1 1.2 1.0 1.3 5.6 7.0 8.0 6.8 4.9 5.1 5.4 6.5 6.9 8.2 8.0 7.4 8.1 9.3 8.0 8.0
4.7 3.8 2.7 2.1 1.5 1.3 1.2 0.5 0.8 0.7 0.8 1.0 1.6 2.2 2.3 2.2 1.1 1.1 1.2 1.1 0.9 1.0 1.2 1.2 1.2 0.9 2.5 6.1 7.4 8.3 5.5 5.2 5.4 5.8 6.1 6.3 6.9 7.2 8.7 8.2 6.7 6.8 7.3
3.1 2.1 1.3 0.6 0.5 0.5 0.8 0.9 0.5 0.6 1.2 1.5 2.0 2.7 2.3 1.2 1.3 1.4 1.1 1.1 1.1 1.1 0.9 1.2 1.3 1.4 1.8 6.3 7.2 7.2 6.5 6.9 6.2 6.3 6.8 7.6 7.9 9.2 9.3 8.0 7.5 8.1 7.5
1.2 -0.2 -0.3 -0.0 0.2 0.5 0.9 1.1 0.7 1.1 1.5 1.9 2.5 1.9 0.9 1.2 1.1 1.2 1.3 1.4 0.7 1.4 1.7 1.5 1.7 2.9 2.8 5.2 7.1 8.9 8.1 7.5 7.5 7.3 7.3 8.8 9.1 9.4 9.1 8.8 8.3 7.1 7.0
-0.7 -0.4 0.1 -0.2 -0.4 0.3 1.1 0.8 0.6 1.2 1.4 1.4 1.1 0.8 0.8 1.0 1.1 1.1 0.8 0.4 0.7 0.9 0.5 1.3 1.0 1.6 2.7 3.7 7.6 9.4 8.5 7.9 8.2 7.7 7.9 7.8 9.2 9.2 9.5 9.4 7.9 8.0 8.2
-0.2 -0.4 -1.0 -0.9 -0.2 0.6 1.1 0.6 1.0 0.6 0.7 0.8 0.7 0.7 0.6 1.8 1.4 0.5 0.6 0.9 0.6 0.5 0.8 1.0 1.7 2.2 2.8 6.2 7.7 9.5 9.5 9.3 8.2 8.1 7.8 7.8 9.2 9.4 9.5 8.9 9.3 9.3 9.0
-0.3 -0.2 -1.0 -1.0 -0.6 -0.1 1.3 0.5 -0.4 0.2 0.3 0.5 0.6 0.5 0.7 0.7 0.5 0.6 0.5 0.2 0.5 1.0 1.4 3.0 3.5 4.4 5.4 4.5 8.0 9.3 9.5 9.5 8.7 8.4 9.0 9.3 9.3 8.8 7.0 7.3 9.2 9.2 6.9
-0.4 -0.0 0.1 0.2 -0.4 -0.2 0.0 -0.1 -0.2 0.4 0.5 0.1 0.1 0.4 0.9 0.9 0.5 1.3 1.5 0.6 1.2 1.6 3.8 4.6 5.3 4.8 5.7 6.2 7.2 8.0 7.6 8.8 8.7 8.7 7.6 8.2 7.8 7.2 7.0 6.4 6.5 6.7 7.7
0.0 0.3 -0.0 -0.2 -0.9 -0.1 0.2 0.2 0.2 0.3 0.2 0.2 0.9 0.8 0.9 0.3 0.7 1.3 1.0 1.2 1.8 3.7 5.5 5.3 5.8 6.3 7.0 7.9 9.2 9.1 8.7 8.5 8.8 8.8 7.3 6.3 6.0 5.7 5.9 6.0 6.3 6.7 6.8
-0.2 -0.2 -0.5 -0.3 -0.5 0.0 -0.2 -0.1 0.3 0.5 0.6 1.0 1.4 1.3 1.0 0.4 1.4 0.7 0.5 3.8 5.4 6.1 6.8 7.2 7.4 7.5 8.5 9.5 9.5 9.4 9.3 9.4 9.4 7.9 6.3 5.9 5.9 6.2 6.3 6.3 6.2 6.0 5.7
Wind_Speed
6 6 6 6 5 4 6 7 9 7 10 9 8 6 6 7 6 6 10 12 13 14 10 4 5 5 6 5 5 3 5 3 6 3 4 4 2 3 3 2 2 4 8
6 6 6 6 7 7 6 7 8 7 6 6 4 4 6 5 6 5 10 13 14 13 10 5 5 6 4 6 5 5 3 3 5 3 1 4 4 3 9 4 3 6 5
10 8 9 8 7 7 7 8 8 9 8 11 11 9 9 6 5 5 5 5 13 13 11 9 5 5 4 4 3 4 5 3 3 4 3 3 3 4 3 4 3 9 4
9 8 7 7 8 7 7 8 8 10 10 11 12 14 7 8 2 3 4 5 11 10 11 9 8 5 3 5 3 4 3 2 2 3 2 1 3 3 5 2 7 3 10
14 13 13 11 7 8 8 7 8 8 7 8 10 9 9 8 5 5 8 7 5 9 10 8 7 5 4 4 5 5 5 2 1 0 2 2 3 2 3 9 6 9 8
13 10 8 9 6 6 8 8 9 6 7 8 8 12 15 11 8 5 5 4 3 4 6 8 7 6 5 4 3 4 4 3 3 2 2 2 2 3 3 6 11 12 9
14 15 16 12 11 11 10 8 10 8 8 10 9 10 11 10 9 7 5 5 3 2 4 3 5 4 3 5 4 4 4 2 2 2 3 1 2 2 3 6 11 10 10
14 18 18 15 13 12 11 11 10 11 9 10 9 8 8 5 5 5 4 4 4 3 3 4 5 5 5 5 4 2 3 2 3 4 3 2 3 2 3 5 8 13 7
15 18 16 14 13 12 11 12 12 10 10 10 9 8 8 8 7 7 6 4 4 4 4 4 4 4 4 4 4 3 4 4 3 4 4 3 3 3 4 4 5 6 10
14 14 14 14 11 11 10 10 11 12 10 10 9 8 8 7 6 6 6 6 5 4 5 4 4 4 4 4 4 4 5 4 4 4 4 4 3 4 4 4 5 6 9
16 15 13 11 12 11 11 10 12 13 10 9 9 9 7 7 6 6 6 5 5 4 4 3 4 5 5 5 5 5 5 5 6 5 5 6 6 4 4 5 5 7 7
14 14 14 13 13 12 11 10 10 10 9 9 9 8 7 7 6 6 6 5 5 4 3 4 5 5 5 5 5 6 6 6 6 7 6 7 7 6 7 5 8 9 10
14 14 13 12 12 11 10 10 9 10 9 9 9 7 7 7 6 6 5 5 4 4 5 5 5 5 5 6 6 5 6 6 7 7 7 8 7 8 7 8 9 9 9
16 14 12 11 10 10 11 10 9 9 9 9 8 7 6 6 6 5 5 5 4 5 5 4 4 5 5 5 6 6 6 6 6 6 7 7 8 9 10 10 11 11 12
14 15 14 12 11 11 10 9 9 9 8 9 7 7 6 6 6 5 5 5 5 4 3 4 5 5 5 5 7 5 6 6 6 6 6 7 12 21 18 12 14 15 12
14 14 14 13 13 13 11 11 10 9 9 8 7 6 6 6 5 4 5 4 4 3 3 5 5 6 5 14 17 14 5 5 6 8 8 7 14 13 24 25 28 23 16
15 15 15 15 13 12 13 12 11 8 8 8 7 6 6 5 4 4 4 3 3 3 5 5 5 6 6 14 17 18 4 5 6 7 9 9 9 16 12 21 27 25 19
14 13 12 11 11 11 10 11 10 9 8 7 7 6 6 5 5 4 3 2 2 4 4 5 6 5 6 16 18 19 6 6 7 8 9 9 12 11 19 17 12 13 12
12 12 12 13 13 13 12 12 9 8 8 7 6 6 5 5 4 3 3 3 2 3 3 4 6 6 7 15 18 16 7 7 8 7 7 10 11 22 29 17 15 15 13
12 15 14 14 13 11 12 13 10 8 7 6 6 5 6 5 4 2 2 1 2 3 4 6 5 9 6 15 18 16 7 9 8 6 8 14 19 28 28 18 15 12 15
15 14 13 13 12 12 13 11 9 7 6 6 6 6 5 5 3 2 2 3 4 4 5 5 6 6 7 8 18 19 10 8 9 9 9 9 25 27 29 27 11 15 18
13 13 14 12 10 11 12 10 8 6 7 7 6 6 5 3 3 4 3 3 4 5 6 6 5 4 6 13 15 20 20 20 11 11 9 12 27 29 27 19 24 26 22
12 11 14 13 8 7 10 11 6 7 7 7 6 5 5 4 4 3 4 4 4 4 5 4 4 5 5 5 17 20 21 21 13 9 19 26 25 24 17 22 24 22 9
12 12 14 12 8 7 7 9 7 7 7 7 6 4 4 3 3 3 3 3 4 4 5 5 6 5 6 5 7 6 8 14 11 15 9 16 18 19 18 14 12 9 9
10 11 12 10 8 8 8 6 7 7 7 6 4 3 3 3 3 3 3 3 4 4 5 4 4 6 7 7 17 16 11 10 15 17 8 8 9 9 9 10 10 10 10
10 10 9 11 8 8 7 6 6 7 6 5 3 2 2 2 2 3 4 6 8 13 13 15 12 7 15 21 22 23 24 25 23 9 8 9 9 10 10 10 11 10 14
Wind_Direction
267 205 192 173 162 159 154 143 129 136 131 129 123 112 117 110 95 84 87 88 82 80 80 71 62 58 61 54 33 20 18 359 353 357 334 328 28 252 330 10 333 3 8
201 197 191 176 174 164 158 139 136 132 122 122 101 111 121 93 93 95 83 78 80 79 75 77 64 56 64 49 43 44 10 0 22 1 314 348 330 345 318 352 346 4 342
200 196 187 192 163 166 151 141 135 127 118 118 111 102 100 97 101 88 75 64 80 78 81 74 73 66 64 62 55 47 50 14 336 29 65 346 300 326 316 316 348 338 326
194 182 171 179 172 174 135 129 131 128 130 136 131 139 137 131 119 108 98 79 77 75 77 77 73 71 65 56 38 47 59 67 16 334 25 249 238 305 316 303 309 308 311
185 179 177 177 168 148 137 125 126 124 123 121 129 121 106 105 111 105 96 85 73 75 73 75 71 66 62 62 53 36 33 42 10 9 328 300 279 268 273 301 310 307 307
186 172 134 128 128 121 122 129 130 109 109 112 108 123 128 131 123 114 104 100 88 70 66 68 66 60 56 51 41 40 32 14 358 335 309 257 293 304 289 296 305 297 305
164 154 150 151 147 144 135 130 133 117 112 110 108 116 121 121 124 128 125 128 112 73 57 63 54 48 44 46 39 31 4 342 332 301 295 287 280 269 282 303 304 304 306
170 165 161 157 152 144 139 130 131 121 112 110 104 101 101 110 109 118 119 111 104 100 77 70 63 48 41 33 24 6 326 326 316 310 307 280 284 276 270 298 307 310 298
174 166 156 150 145 140 135 134 123 113 111 112 110 103 105 109 116 110 102 102 103 107 85 72 60 38 26 18 3 345 323 317 293 292 257 269 266 262 266 274 277 289 309
158 154 150 141 134 126 117 115 122 123 119 112 115 113 110 106 107 103 103 99 92 78 73 59 43 22 6 0 357 328 310 316 302 280 287 282 264 268 261 261 270 268 278
155 148 138 130 125 117 120 119 118 122 119 116 115 110 108 107 101 97 96 93 85 72 62 45 24 10 1 352 343 326 307 322 303 292 284 275 268 266 267 267 267 270 268
145 137 133 131 133 126 126 124 121 122 121 118 114 110 111 104 97 96 93 90 83 63 52 29 20 7 354 338 330 321 311 300 297 289 281 272 281 275 271 268 275 274 277
134 135 132 140 135 132 129 128 125 124 122 118 116 109 106 104 104 102 96 83 71 51 32 29 15 352 335 325 315 295 290 290 286 282 280 280 281 282 283 285 286 280 287
148 140 136 138 135 135 135 130 122 128 124 119 115 113 115 115 113 105 89 75 61 49 29 14 353 340 321 310 298 289 290 287 286 288 287 284 281 284 291 296 301 304 298
150 148 145 141 137 131 128 127 129 129 129 122 116 119 118 114 110 97 81 68 52 36 17 358 344 337 327 321 313 306 299 298 307 299 287 288 302 315 315 313 315 304 300
151 149 145 141 146 146 142 137 137 137 131 124 123 124 120 119 106 93 78 61 34 10 5 357 341 332 330 326 332 332 322 323 303 306 304 290 306 304 312 311 307 304 301
157 156 156 156 152 149 145 146 144 131 123 124 125 127 127 115 102 86 67 43 2 354 354 340 337 321 314 323 326 326 318 300 293 296 303 304 303 308 294 291 299 300 316
155 151 145 137 139 136 132 128 133 129 127 124 128 127 118 111 94 77 48 359 6 348 329 326 320 316 310 323 324 324 310 293 279 280 285 289 295 293 305 311 317 311 304
149 145 141 136 133 136 137 130 123 124 126 131 130 122 118 109 103 77 23 354 343 332 325 306 314 316 302 319 327 328 313 298 282 277 283 289 297 306 316 321 317 314 310
131 130 129 128 129 136 133 128 132 132 132 135 124 115 115 113 92 72 18 335 342 318 316 317 311 310 306 314 326 326 314 309 308 304 283 305 316 317 322 324 322 320 308
121 121 125 132 133 131 128 126 129 131 131 117 114 110 96 99 91 70 26 354 335 326 328 311 297 293 300 303 324 327 321 311 317 321 323 315 317 320 327 324 329 304 315
115 117 116 116 121 125 123 124 125 130 119 114 104 98 90 72 61 46 12 349 349 334 319 310 301 300 298 310 323 324 323 323 326 322 317 311 323 327 325 327 315 322 330
112 115 120 114 102 106 129 124 134 120 113 105 105 95 83 66 44 34 359 349 342 322 304 298 305 304 302 286 309 316 318 326 321 320 316 328 325 325 325 318 322 325 314
115 120 116 113 103 95 92 116 124 119 112 108 99 86 77 66 33 13 353 333 318 308 305 309 314 303 308 302 301 301 313 319 321 321 324 323 324 320 316 318 315 313 314
105 111 116 115 107 101 102 109 115 112 104 104 107 82 71 37 358 337 279 294 268 284 314 298 293 312 316 311 326 328 324 330 330 334 332 321 322 319 318 317 316 317 317
106 100 100 110 111 109 106 104 106 114 121 110 94 60 42 359 336 323 307 300 318 327 326 327 324 317 316 324 330 325 336 333 334 334 321 319 318 316 316 316 316 315 316